{"data":{"norad_id":63200,"intl_designator":"2025-048T","name":"STARLINK-32934","alt_names":[],"object_type":"PAYLOAD","status":"ACTIVE","operator":null,"country":"US","launch_date":"2025-03-13","launch_site_code":"AFETR","launch_vehicle":null,"mission":null,"orbit_class":"UNKNOWN","rcs_meters":null,"size_class":null,"mass_kg":null,"dimensions":null,"purposes":["comms"],"wikipedia_slug":null,"has_3d_model":false,"image_url":null,"decayed_at":null,"tle_current":{"epoch":"2026-09-21T21:42:21.529440Z","epoch_age_seconds":40934,"freshness":"FRESH","line1":"1 63200U 25048T   26264.90441585  .00015127  00000+0  55763-3 0  9990","line2":"2 63200  42.9987  56.9396 0001223   0.9127 359.1726 15.27607103 87108","mean_motion":15.27607103,"eccentricity":0.0001223,"inclination_deg":42.9987,"raan_deg":56.9396,"arg_perigee_deg":0.9127,"mean_anomaly_deg":359.1726,"bstar":0.00055763,"rev_number":8710,"period_min":94.265076220976,"perigee_km":482.12882797301,"apogee_km":483.8070542416,"semimajor_km":6861.1049411073,"source":"CELESTRAK","updated_at":"2026-09-22T09:00:49.798174Z"}}}